�N����,����,����,����,����,�C��,���x,�~����,�S�V����,�ő�u�ԕ���,,,,,
,,,,,,,,,����,����,����,�N��,,
yyyy/mm/dd,hh:mm:ss,(16),16����,m/s,��,%,mm,KW/�u,(16),16����,m/s,Time,,
2019/5/1,1:00:00,6,�쓌,3.2,5.6,95.5,3,0,6,�쓌,5.9,35,,
2019/5/1,2:00:00,6,�쓌,4.4,5.7,96.1,2,0,6,�쓌,8.6,26,,
2019/5/1,3:00:00,6,�쓌,3.9,5.9,96.4,1,0,8,��,8.1,45,,
2019/5/1,4:00:00,7,��쓌,3.8,6.3,96.5,0,0,8,��,8.7,47,,
2019/5/1,5:00:00,8,��,4.6,7,96.3,0,0.01,8,��,9.2,59,,
2019/5/1,6:00:00,8,��,5.2,6.9,95.8,0,0.04,8,��,10.3,48,,
2019/5/1,7:00:00,9,��쐼,2.9,7.3,96,0,0.08,8,��,9.4,5,,
2019/5/1,8:00:00,8,��,2.5,7.7,95.8,0,0.16,9,��쐼,5.6,23,,
2019/5/1,9:00:00,14,�k��,1.2,8.8,94.2,0,0.21,7,��쓌,3.3,0,,
2019/5/1,10:00:00,4,��,1.2,10.8,80.5,0,0.36,16,�k,2.8,43,,
2019/5/1,11:00:00,6,�쓌,2.5,9.6,83.5,0,0.34,6,�쓌,3.6,57,,
2019/5/1,12:00:00,7,��쓌,2.8,9.1,79.1,0,0.42,7,��쓌,4.5,56,,
2019/5/1,13:00:00,6,�쓌,2,8,87.2,0,0.2,7,��쓌,4.2,14,,
2019/5/1,14:00:00,16,�k,1.4,9.7,86.8,0,0.25,6,�쓌,3.1,2,,
2019/5/1,15:00:00,4,��,2.8,9,81.3,0,0.25,1,�k�k��,4.2,18,,
2019/5/1,16:00:00,2,�k��,3.1,7.4,90.1,0,0.17,4,��,5.5,21,,
2019/5/1,17:00:00,3,���k��,2.3,7.7,91.7,0,0.09,2,�k��,3.7,0,,
2019/5/1,18:00:00,5,���쓌,1.7,7.3,91.4,0,0.04,2,�k��,2.7,3,,
2019/5/1,19:00:00,5,���쓌,2.2,6.7,91.7,0,0.01,5,���쓌,2.9,59,,
2019/5/1,20:00:00,3,���k��,1.4,6.7,93.2,0,0,4,��,2.5,3,,
2019/5/1,21:00:00,2,�k��,1.3,7.2,94.5,0,0,3,���k��,2.5,33,,
2019/5/1,22:00:00,7.8,��쓌,95.3,0,0,,,,,,,,
2019/5/1,23:00:00,16,�k,0.8,7.9,95.3,0,0,1,�k�k��,2.3,23,,
2019/5/1,0:00:00,16,�É�,0.2,7.9,94.5,0,0,2,�k��,2.5,34,,
2019/5/2,1:00:00,13,���k��,1.5,7.3,93.1,0,0,3,���k��,4,12,,
2019/5/2,2:00:00,11,���쐼,1.5,7.2,93.5,0,0,13,���k��,2.8,13,,
2019/5/2,3:00:00,10,�쐼,0.8,7,94,0,0,7,��쓌,7.9,11,,
2019/5/2,4:00:00,12,��,1.1,6.7,94.1,0,0,11,���쐼,2,18,,
2019/5/2,5:00:00,13,���k��,0.8,6.8,94.3,0,0.01,13,���k��,2.2,46,,
2019/5/2,6:00:00,12,��,1.1,7.8,95.5,0,0.07,13,���k��,1.6,59,,
2019/5/2,7:00:00,13,���k��,1.7,10.7,79,0,0.38,13,���k��,3,28,,
2019/5/2,8:00:00,6,�쓌,0.9,14.4,60.7,0,0.59,13,���k��,2.4,7,,
2019/5/2,9:00:00,11,���쐼,7.6,16.8,49.7,0,0.79,12,��,12.9,46,,
2019/5/2,10:00:00,12,��,7.4,17.1,42,0,0.94,12,��,12.5,43,,
2019/5/2,11:00:00,12,��,8.7,16.9,37.3,0,1.05,12,��,13.9,11,,
2019/5/2,12:00:00,12,��,6.5,17.5,39.8,0,0.85,12,��,12.3,46,,
2019/5/2,13:00:00,12,��,8.4,14.6,45.6,0,0.98,12,��,14.9,47,,
2019/5/2,14:00:00,11,���쐼,6.4,14.2,48.7,0,0.81,12,��,12,3,,
2019/5/2,15:00:00,11,���쐼,4,14.3,50.9,0,0.66,12,��,10,16,,
2019/5/2,16:00:00,11,���쐼,5.3,13.7,44.9,0,0.56,13,���k��,9.3,42,,
2019/5/2,17:00:00,11,���쐼,5.5,12.3,47.6,0,0.37,13,���k��,10.9,43,,
2019/5/2,18:00:00,11,���쐼,6.7,9.9,53.5,0,0.16,13,���k��,12.7,8,,
2019/5/2,19:00:00,12,��,1.9,8.3,63.2,0,0.01,11,���쐼,9.2,4,,
2019/5/2,20:00:00,12,��,3.5,8.7,61.3,0,0,12,��,8.8,41,,
2019/5/2,21:00:00,11,���쐼,5,8.8,60,0,0,11,���쐼,9.3,31,,
2019/5/2,22:00:00,11,���쐼,4.3,7.8,60.1,0,0,12,��,9,22,,
2019/5/2,23:00:00,12,��,0.7,6.9,62.3,0,0,11,���쐼,7.5,2,,
2019/5/2,0:00:00,11,���쐼,2.4,8.3,66.6,0,0,11,���쐼,4.9,57,,
2019/5/3,1:00:00,11,���쐼,5.5,8.2,59.8,0,0,11,���쐼,8.4,52,,
2019/5/3,2:00:00,12,��,5.7,8.1,61.9,0,0,11,���쐼,9.2,57,,
2019/5/3,3:00:00,11,���쐼,3.6,6.3,64.9,0,0,12,��,10.1,3,,
2019/5/3,4:00:00,15,�k�k��,1.8,6,67.9,0,0,11,���쐼,4.4,5,,
2019/5/3,5:00:00,14,�k��,3,4.9,75,0,0.03,14,�k��,4,56,,
2019/5/3,6:00:00,14,�k��,2.4,8.7,68,0,0.18,14,�k��,4.4,30,,
2019/5/3,7:00:00,15,�k�k��,4.6,12.9,51.1,0,0.39,13,���k��,7.6,57,,
2019/5/3,8:00:00,15,�k�k��,4.1,15,44.7,0,0.6,15,�k�k��,8.7,20,,
2019/5/3,9:00:00,14,�k��,5.2,16.5,36.6,0,0.77,14,�k��,12.3,39,,
2019/5/3,10:00:00,7,��쓌,4.2,14.3,37.4,0,0.93,15,�k�k��,9.6,1,,
2019/5/3,11:00:00,14,�k��,5.8,19.6,34.3,0,0.88,13,���k��,11.3,39,,
2019/5/3,12:00:00,13,���k��,7.2,19.5,35.5,0,1.07,12,��,16.8,18,,
2019/5/3,13:00:00,11,���쐼,7.4,19,35.5,0,1.01,11,���쐼,12.7,27,,
2019/5/3,14:00:00,12,��,8.8,18.3,37,0,0.89,12,��,13.9,57,,
2019/5/3,15:00:00,11,���쐼,7.2,18.3,38,0,0.73,12,��,13.3,14,,
2019/5/3,16:00:00,12,��,6.5,18.3,40.5,0,0.55,11,���쐼,12,11,,
2019/5/3,17:00:00,11,���쐼,6.5,17.4,40.5,0,0.36,11,���쐼,11.3,41,,
2019/5/3,18:00:00,11,���쐼,4.2,15.4,43.9,0,0.15,11,���쐼,9.2,30,,
2019/5/3,19:00:00,12,��,2.8,12.5,51.9,0,0.01,12,��,6.4,12,,
2019/5/3,20:00:00,11,���쐼,2.2,9.1,58,0,0,11,���쐼,4,0,,
2019/5/3,21:00:00,12,��,1.6,6.1,66.1,0,0,12,��,3.3,37,,
2019/5/3,22:00:00,12,��,2.4,5.2,74.3,0,0,14,�k��,3.6,16,,
2019/5/3,23:00:00,13,���k��,1.6,3.3,78.3,0,0,13,���k��,3.3,30,,
2019/5/3,0:00:00,13,���k��,2.6,5.6,86.3,0,0,13,���k��,4.3,56,,
2019/5/4,1:00:00,13,���k��,1.3,3.4,83.1,0,0,14,�k��,3.9,1,,
2019/5/4,2:00:00,12,��,1.9,3.5,86.6,0,0,13,���k��,3.6,44,,
2019/5/4,3:00:00,13,���k��,1.5,3.3,88.4,0,0,13,���k��,3.6,12,,
2019/5/4,4:00:00,14,�k��,2.8,3.3,88.6,0,0,14,�k��,4.7,48,,
2019/5/4,5:00:00,12,��,2.5,1.9,86.9,0,0.03,12,��,3.4,28,,
2019/5/4,6:00:00,16,�k,0.6,8.1,81.9,0,0.2,13,���k��,3.7,12,,
2019/5/4,7:00:00,2,�k��,1.8,12.4,55.1,0,0.41,2,�k��,2.8,57,,
2019/5/4,8:00:00,4,��,2.9,15.3,45.5,0,0.6,4,��,4.1,53,,
2019/5/4,9:00:00,3,���k��,3.8,14.7,46.2,0,0.78,4,��,5.9,48,,
2019/5/4,10:00:00,5,���쓌,1.8,15.3,48.1,0,0.92,4,��,6.1,11,,
2019/5/4,11:00:00,7,��쓌,2.5,15.2,43.7,0,1.02,6,�쓌,4.1,32,,
2019/5/4,12:00:00,7,��쓌,2.8,17.2,35.6,0,1.05,7,��쓌,4.5,21,,
2019/5/4,13:00:00,7,��쓌,3.1,17,33.6,0,1,7,��쓌,5.6,53,,
2019/5/4,14:00:00,6,�쓌,2.6,16.4,32.5,0,0.87,6,�쓌,5,27,,
2019/5/4,15:00:00,6,�쓌,2.6,17.5,31.9,0,0.7,6,�쓌,4.6,44,,
2019/5/4,16:00:00,7,��쓌,1.7,17,32.6,0,0.52,8,��,3.6,6,,
2019/5/4,17:00:00,4,��,3.5,11.7,54.5,0,0.35,3,���k��,5.8,51,,
2019/5/4,18:00:00,5,���쓌,2.5,8.6,66.2,0,0.14,4,��,5.4,0,,
2019/5/4,19:00:00,4,��,1.1,6.8,76.1,0,0.01,5,���쓌,2.8,0,,
2019/5/4,20:00:00,10,�쐼,0.5,4.9,79.3,0,0,11,���쐼,7.7,35,,
2019/5/4,21:00:00,11,���쐼,0.5,3.1,81.9,0,0,11,���쐼,2.1,36,,
2019/5/4,22:00:00,14,�k��,1.3,2.5,87.2,0,0,1,�k�k��,2.4,49,,
2019/5/4,23:00:00,12,��,1.3,2.1,88.8,0,0,12,��,7.6,16,,
2019/5/4,0:00:00,13,���k��,2,1.7,90.1,0,0,11,���쐼,4.8,22,,
2019/5/5,1:00:00,13,���k��,1.9,2,92.6,0,0,13,���k��,2.9,59,,
2019/5/5,2:00:00,13,���k��,0.7,3.1,93.9,0,0,13,���k��,3.1,1,,
2019/5/5,3:00:00,13,���k��,2.8,2.6,93.4,0,0,13,���k��,3.5,58,,
2019/5/5,4:00:00,12,��,2.9,1.6,93.1,0,0,13,���k��,4.4,23,,
2019/5/5,5:00:00,13,���k��,2.6,3.6,93.9,0,0.02,13,���k��,4.1,30,,
2019/5/5,6:00:00,13,���k��,1.2,9,82.6,0,0.2,13,���k��,3.5,3,,
2019/5/5,7:00:00,13,���k��,1.4,15.3,60.8,0,0.38,12,��,2.5,48,,
2019/5/5,8:00:00,3,���k��,0.6,21.5,28.3,0,0.61,14,�k��,2.1,2,,
2019/5/5,9:00:00,8,��,1.9,21.9,25.7,0,0.8,8,��,3.3,43,,
2019/5/5,10:00:00,7,��쓌,2.7,20,28.7,0,0.95,7,��쓌,4.3,27,,
2019/5/5,11:00:00,6,�쓌,3.4,20.9,27.5,0,1.05,7,��쓌,4.8,22,,
2019/5/5,12:00:00,6,�쓌,3.8,20.5,25.7,0,1.08,6,�쓌,6,56,,
2019/5/5,13:00:00,6,�쓌,2.4,21.4,28.2,0,1.03,6,�쓌,5.4,7,,
2019/5/5,14:00:00,7,��쓌,1.4,23.9,26.2,0,0.92,8,��,3.4,43,,
2019/5/5,15:00:00,10,�쐼,7.2,26.4,14.1,0,0.76,10,�쐼,11.6,40,,
2019/5/5,16:00:00,11,���쐼,5.9,25.4,13.4,0,0.57,10,�쐼,11,1,,
2019/5/5,17:00:00,11,���쐼,4.6,23.8,13.7,0,0.37,11,���쐼,10.3,2,,
2019/5/5,18:00:00,12,��,3.8,19.9,18,0,0.16,12,��,8.1,44,,
2019/5/5,19:00:00,11,���쐼,3.3,17.6,21.9,0,0.02,12,��,7.8,8,,
2019/5/5,20:00:00,13,���k��,1.6,12.8,24.1,0,0,13,���k��,3.5,2,,
2019/5/5,21:00:00,14,�k��,2.4,12.2,37.1,0,0,14,�k��,3.4,50,,
2019/5/5,22:00:00,7,��쓌,1.8,7.9,49.5,0,0,14,�k��,3.4,2,,
2019/5/5,23:00:00,16,�k,0.4,5.4,56.2,0,0,1,�k�k��,3.3,27,,
2019/5/5,0:00:00,15,�k�k��,0.8,2,65.5,0,0,16,�k,1.8,46,,
2019/5/6,1:00:00,12,��,1.9,1.9,74.7,0,0,14,�k��,3,23,,
2019/5/6,2:00:00,13,���k��,1.7,-0.1,77.9,0,0,12,��,2.5,46,,
2019/5/6,3:00:00,10,�쐼,0.9,-0.5,84.4,0,0,12,��,2.8,12,,
2019/5/6,4:00:00,13,���k��,1.2,-0.9,84.7,0,0,11,���쐼,2.8,39,,
2019/5/6,5:00:00,12,��,1.3,0.5,88.9,0,0.03,13,���k��,2.3,10,,
2019/5/6,6:00:00,3,���k��,0.4,6.1,88.8,0,0.16,2,�k��,7,48,,
2019/5/6,7:00:00,3,���k��,2.3,9.1,70.3,0,0.41,3,���k��,3.3,58,,
2019/5/6,8:00:00,3,���k��,4.2,10.2,71.4,0,0.63,3,���k��,5.9,36,,
2019/5/6,9:00:00,3,���k��,3.8,9.4,79.1,0,0.67,5,���쓌,6.4,9,,
2019/5/6,10:00:00,3,���k��,3.9,10.6,73.2,0,0.83,3,���k��,5.8,53,,
2019/5/6,11:00:00,3,���k��,4,9.8,81.9,0,0.47,3,���k��,5.8,55,,
2019/5/6,12:00:00,2,�k��,3.8,11.7,77.6,0,0.72,3,���k��,6.1,2,,
2019/5/6,13:00:00,8,��,4.3,14.6,65.9,0,0.75,8,��,7,59,,
2019/5/6,14:00:00,8,��,5,15.4,64.4,0,0.69,9,��쐼,10.8,33,,
2019/5/6,15:00:00,8,��,5.5,13.5,66.8,0,0.54,7,��쓌,11.7,37,,
2019/5/6,16:00:00,8,��,6.6,10.8,76,0,0.29,7,��쓌,12.8,14,,
2019/5/6,17:00:00,8,��,3.6,10.1,83.1,0,0.13,8,��,12.4,0,,
2019/5/6,18:00:00,8,��,4.6,10.1,82.3,0,0.05,8,��,9.3,24,,
2019/5/6,19:00:00,8,��,4.7,9.3,86.9,0,0.01,8,��,9.3,54,,
2019/5/6,20:00:00,8,��,5.2,7.6,90.2,0,0,7,��쓌,9.5,50,,
2019/5/6,21:00:00,8,��,3.9,6.9,92.9,0,0,8,��,9.7,37,,
2019/5/6,22:00:00,8,��,1.5,7.1,94.1,0,0,8,��,7.1,5,,
2019/5/6,23:00:00,7,��쓌,5.5,7.3,94.7,0,0,7,��쓌,10.1,56,,
2019/5/6,0:00:00,8,��,3.9,7,95.1,0,0,7,��쓌,9.8,15,,
2019/5/7,1:00:00,7,��쓌,4.1,7.1,95.7,0,0,7,��쓌,8.5,31,,
2019/5/7,2:00:00,8,��,4,9.1,97.1,4.5,0,8,��,9,46,,
2019/5/7,3:00:00,9,��쐼,3.1,8.4,97.2,7,0,7,��쓌,9.2,36,,
2019/5/7,4:00:00,9,��쐼,3.9,8.4,97.2,3,0,9,��쐼,7.8,54,,
2019/5/7,5:00:00,8,��,3.3,6.3,96.1,1.5,0.01,8,��,7,56,,
2019/5/7,6:00:00,9,��쐼,3.4,6.3,96.3,3,0.02,10,�쐼,7.4,7,,
2019/5/7,7:00:00,12,��,1.7,7.6,97.1,0.5,0.06,9,��쐼,5.8,1,,
2019/5/7,8:00:00,16,�É�,0.2,8.8,97.6,0.5,0.11,12,��,2.6,20,,
2019/5/7,9:00:00,9,��쐼,1.9,10.3,96.6,0,0.21,9,��쐼,3.5,48,,
2019/5/7,10:00:00,8,��,1.1,13.4,80.1,0,0.32,7,��쓌,2.3,56,,
2019/5/7,11:00:00,4,��,3.5,10.9,68.4,0,0.66,4,��,4.9,58,,
2019/5/7,12:00:00,3,���k��,3.3,9.8,81.2,0,0.45,4,��,5.5,7,,
2019/5/7,13:00:00,3,���k��,1.8,9.9,80.8,0,0.41,3,���k��,6,33,,
2019/5/7,14:00:00,1,�k�k��,4.6,13.4,58.5,0,0.44,1,�k�k��,7.4,55,,
2019/5/7,15:00:00,16,�k,3.9,14.9,47.4,0,0.66,1,�k�k��,8.8,18,,
2019/5/7,16:00:00,15,�k�k��,2.8,13.8,37.9,0,0.42,13,���k��,7.4,26,,
2019/5/7,17:00:00,9,��쐼,2.9,9.7,67.6,0,0.1,13,���k��,8.5,0,,
2019/5/7,18:00:00,8,��,1.3,10.5,62.7,0,0.16,9,��쐼,5.5,15,,
2019/5/7,19:00:00,5,���쓌,1.3,6,75.9,0,0.02,4,��,8,16,,
2019/5/7,20:00:00,8,��,0.5,4.8,83.8,0,0,5,���쓌,2.8,6,,
2019/5/7,21:00:00,10,�쐼,0.5,1.1,87.5,0,0,13,���k��,2.8,29,,
2019/5/7,22:00:00,13,���k��,1.1,1.3,89.9,0,0,12,��,7.9,9,,
2019/5/7,23:00:00,15,�k�k��,0.6,0.3,93,0,0,8,��,3.7,20,,
2019/5/7,0:00:00,13,���k��,2.2,-0.2,94.5,0,0,14,�k��,3.1,54,,
2019/5/8,1:00:00,13,���k��,2.5,0.5,96.1,0,0,13,���k��,4.1,9,,
2019/5/8,2:00:00,13,���k��,1.5,0.8,96.7,0,0,13,���k��,3.5,6,,
2019/5/8,3:00:00,13,���k��,1.8,1.1,96.9,0,0,13,���k��,3,25,,
2019/5/8,4:00:00,14,�k��,1.8,0.5,96.9,0,0,13,���k��,2.9,37,,
2019/5/8,5:00:00,16,�É�,0.2,1.3,96.8,0,0.05,13,���k��,3.3,18,,
2019/5/8,6:00:00,13,���k��,0.9,4.6,93.9,0,0.19,13,���k��,3,32,,
2019/5/8,7:00:00,6,�쓌,0.6,6.9,69.8,0,0.26,5,���쓌,3.6,28,,
2019/5/8,8:00:00,16,�É�,0.2,7.5,69.7,0,0.18,4,��,2.5,54,,
2019/5/8,9:00:00,12,��,4.7,11.5,56.6,0,0.46,13,���k��,8.3,59,,
2019/5/8,10:00:00,13,���k��,4.5,11.4,55.5,0,0.62,12,��,12.2,21,,
2019/5/8,11:00:00,11,���쐼,3.7,10.5,58.2,0,0.62,13,���k��,8.5,33,,
2019/5/8,12:00:00,9,��쐼,4.9,12.9,56.5,0.5,0.74,11,���쐼,12.8,56,,
2019/5/8,13:00:00,10,�쐼,4.8,13.6,50.1,0,0.96,11,���쐼,12.4,13,,
2019/5/8,14:00:00,12,��,7.2,14,48.8,0,0.54,11,���쐼,10.7,51,,
2019/5/8,15:00:00,2,�k��,4.5,11.9,60.8,0,0.27,12,��,11.5,4,,
2019/5/8,16:00:00,4,��,2.6,11.7,61.5,0,0.38,2,�k��,7.3,9,,
2019/5/8,17:00:00,6,�쓌,2.3,11,63.7,0,0.28,6,�쓌,3.5,37,,
2019/5/8,18:00:00,9,��쐼,1.6,8.5,64,0,0.16,8,��,2.6,54,,
2019/5/8,19:00:00,9,��쐼,1,5.6,73.2,0,0.02,10,�쐼,2.2,42,,
2019/5/8,20:00:00,15,�k�k��,0.8,4.3,79.8,0,0,15,�k�k��,1.5,58,,
2019/5/8,21:00:00,15,�k�k��,1.1,1.8,85,0,0,13,���k��,2.5,49,,
2019/5/8,22:00:00,12,��,1.2,1.5,89.6,0,0,13,���k��,2.9,36,,
2019/5/8,23:00:00,13,���k��,1.8,1.4,93,0,0,13,���k��,3.2,48,,
2019/5/8,0:00:00,13,���k��,1.1,0.3,94.1,0,0,13,���k��,2.7,3,,
2019/5/9,1:00:00,13,���k��,1.3,-0.5,93.9,0,0,13,���k��,2.9,31,,
2019/5/9,2:00:00,12,��,2.5,-1.3,94.3,0,0,12,��,3.4,11,,
2019/5/9,3:00:00,15,�k�k��,1.1,-1.9,94,0,0,13,���k��,2.5,0,,
2019/5/9,4:00:00,12,��,2.6,-1,94.9,0,0,12,��,4,20,,
2019/5/9,5:00:00,14,�k��,2.5,0.7,95.4,0,0.04,14,�k��,3.9,55,,
2019/5/9,6:00:00,13,���k��,0.6,5.8,95.6,0,0.18,14,�k��,3.6,16,,
2019/5/9,7:00:00,2,�k��,1.1,11,63.9,0,0.39,14,�k��,3.4,20,,
2019/5/9,8:00:00,4,��,1.5,11,61.1,0,0.44,6,�쓌,5.2,22,,
2019/5/9,9:00:00,3,���k��,2.4,13.4,58.7,0,0.59,2,�k��,3.2,53,,
2019/5/9,10:00:00,11,���쐼,8,19.5,39.1,0,0.83,11,���쐼,12.5,52,,
2019/5/9,11:00:00,11,���쐼,7.5,18.5,41,0,0.47,10,�쐼,13,48,,
2019/5/9,12:00:00,12,��,6.2,18.9,43.2,0,0.41,11,���쐼,11.9,38,,
2019/5/9,13:00:00,11,���쐼,6.2,19,43.4,0,0.42,12,��,12.5,16,,
2019/5/9,14:00:00,11,���쐼,7.1,19.2,43.9,0,0.4,11,���쐼,12.3,33,,
2019/5/9,15:00:00,11,���쐼,7.3,20,42.7,0,0.59,12,��,12.8,52,,
2019/5/9,16:00:00,11,���쐼,4.6,19.8,44.6,0,0.57,11,���쐼,10.9,16,,
2019/5/9,17:00:00,10,�쐼,3.3,18.6,41.3,0,0.37,11,���쐼,8,25,,
2019/5/9,18:00:00,11,���쐼,2.9,16.4,43.3,0,0.15,12,��,7.9,40,,
2019/5/9,19:00:00,3,���k��,0.7,12.5,54.3,0,0.02,11,���쐼,6,1,,
2019/5/9,20:00:00,11,���쐼,3.8,12.7,65.9,0,0,11,���쐼,5.2,45,,
2019/5/9,21:00:00,11,���쐼,2.7,13.6,56.7,0,0,12,��,5.7,6,,
2019/5/9,22:00:00,12,��,1.3,6.5,64.3,0,0,12,��,4.5,5,,
2019/5/9,23:00:00,11,���쐼,1.3,5.4,76.4,0,0,14,�k��,2.7,41,,
2019/5/9,0:00:00,13,���k��,1.7,4.2,82,0,0,13,���k��,2.5,55,,
2019/5/10,1:00:00,13,���k��,2.2,4,86,0,0,12,��,3,55,,
2019/5/10,2:00:00,2,�k��,2.1,4.2,86,0,0,5,���쓌,3.1,15,,
2019/5/10,3:00:00,13,���k��,1.6,1.1,84.4,0,0,2,�k��,2.9,12,,
2019/5/10,4:00:00,12,��,1.6,0.9,91.3,0,0,13,���k��,3.1,33,,
2019/5/10,5:00:00,15,�k�k��,0.6,1.9,91.9,0,0.03,13,���k��,3.2,44,,
2019/5/10,6:00:00,12,��,0.9,6.8,87.3,0,0.21,2,�k��,2.4,34,,
2019/5/10,7:00:00,13,���k��,1.6,11.6,70.6,0,0.34,14,�k��,5.4,29,,
2019/5/10,8:00:00,5,���쓌,2.9,11.1,50.2,0,0.48,12,��,7.1,40,,
2019/5/10,9:00:00,4,��,4.5,10.7,64.7,0,0.8,4,��,6.9,24,,
2019/5/10,10:00:00,6,�쓌,3.6,8.3,63.1,0,0.85,6,�쓌,6.2,44,,
2019/5/10,11:00:00,5,���쓌,3.1,10.2,66.4,0,0.82,4,��,6.3,34,,
2019/5/10,12:00:00,4,��,2.8,12.2,58.6,0,0.89,4,��,4.8,5,,
2019/5/10,13:00:00,4,��,2.4,10.5,65.2,0,0.55,4,��,5.8,3,,
2019/5/10,14:00:00,4,��,5.1,11.2,67.6,0,0.86,4,��,6.9,53,,
2019/5/10,15:00:00,3,���k��,4.6,9.7,70.2,0,0.68,3,���k��,7.3,3,,
2019/5/10,16:00:00,3,���k��,5,9.8,76.9,0,0.27,3,���k��,7.8,39,,
2019/5/10,17:00:00,3,���k��,4.6,9.9,70.2,0,0.16,3,���k��,9,16,,
2019/5/10,18:00:00,5,���쓌,1.5,9.3,73.7,0,0.08,3,���k��,7.5,10,,
2019/5/10,19:00:00,10,�쐼,1.5,7.5,75.2,0,0.03,4,��,6,24,,
2019/5/10,20:00:00,8,��,2.6,7.1,82.7,0,0,7,��쓌,5.5,44,,
2019/5/10,21:00:00,9,��쐼,2,6.3,86.4,0,0,9,��쐼,3.4,0,,
2019/5/10,22:00:00,7,��쓌,1.4,6.3,89.3,0,0,8,��,4.4,4,,
2019/5/10,23:00:00,7,��쓌,1.8,6.5,84.7,0,0,8,��,4.3,30,,
2019/5/10,0:00:00,6,�쓌,1.6,6.1,84.7,0,0,4,��,3.1,26,,
2019/5/11,1:00:00,16,�k,1.7,3,84.7,0,0,4,��,3.9,12,,
2019/5/11,2:00:00,13,���k��,1,0.9,85.2,0,0,12,��,7,47,,
2019/5/11,3:00:00,15,�k�k��,0.7,1.4,90.4,0,0,14,�k��,3.3,47,,
2019/5/11,4:00:00,13,���k��,1.4,1,92.5,0,0,12,��,2.7,32,,
2019/5/11,5:00:00,12,��,3,4.2,95.5,0,0.07,13,���k��,4,57,,
2019/5/11,6:00:00,13,���k��,3.4,7.5,63.2,0,0.29,13,���k��,5.7,10,,
2019/5/11,7:00:00,14,�k��,3.9,10.4,49.7,0,0.42,14,�k��,7.4,43,,
2019/5/11,8:00:00,16,�k,3.8,12.3,38.1,0,0.61,15,�k�k��,7.5,26,,
2019/5/11,9:00:00,1,�k�k��,2.6,12.9,32.7,0,0.82,16,�k,7.1,34,,
2019/5/11,10:00:00,7,��쓌,4.8,10.1,50.1,0,0.97,6,�쓌,7.5,40,,
2019/5/11,11:00:00,8,��,5.2,10.5,54.5,0,1.12,7,��쓌,7.9,55,,
2019/5/11,12:00:00,8,��,4.8,8.8,59.2,0,1.07,8,��,9.3,46,,
2019/5/11,13:00:00,8,��,6.3,9.3,60.3,0,1,8,��,10.2,32,,
2019/5/11,14:00:00,9,��쐼,5.5,10.4,59.1,0,0.94,8,��,10.7,29,,
2019/5/11,15:00:00,8,��,5.6,10.7,62.1,0,0.78,9,��쐼,9.6,51,,
2019/5/11,16:00:00,7,��쓌,3.9,9.6,68.6,0,0.34,8,��,10.3,9,,
2019/5/11,17:00:00,7,��쓌,1.9,12.6,48.8,0,0.43,8,��,5.4,9,,
2019/5/11,18:00:00,5,���쓌,4,7.7,56.4,0,0.22,4,��,12.5,58,,
2019/5/11,19:00:00,3,���k��,4.6,5.3,81.3,0,0.02,4,��,12.4,7,,
2019/5/11,20:00:00,3,���k��,2.6,4.8,84.2,0,0,3,���k��,6.4,25,,
2019/5/11,21:00:00,13,���k��,1.5,1.5,81.7,0,0,2,�k��,3.3,1,,
2019/5/11,22:00:00,14,�k��,1,1,87.7,0,0,13,���k��,2.7,30,,
2019/5/11,23:00:00,14,�k��,1.5,1.4,87,0,0,13,���k��,2.8,45,,
2019/5/11,0:00:00,14,�k��,1.5,0.8,89.4,0,0,14,�k��,3.2,43,,
2019/5/12,1:00:00,14,�k��,1.5,0.7,90.1,0,0,13,���k��,3.2,2,,
2019/5/12,2:00:00,15,�k�k��,1.5,0.5,88.5,0,0,13,���k��,2.9,24,,
2019/5/12,3:00:00,14,�k��,0.8,-0.7,86.4,0,0,13,���k��,2.7,48,,
2019/5/12,4:00:00,1,�k�k��,1.3,-1.9,88.8,0,0,1,�k�k��,3.7,41,,
2019/5/12,5:00:00,13,���k��,2.6,-1.7,89.8,0,0.04,13,���k��,3.7,52,,
2019/5/12,6:00:00,13,���k��,2.1,2.3,84.3,0,0.19,13,���k��,3.3,55,,
2019/5/12,7:00:00,13,���k��,2.9,5.9,70,0,0.3,12,��,4.6,56,,
2019/5/12,8:00:00,15,�k�k��,3.4,8.5,57.3,0,0.51,15,�k�k��,5.8,46,,
2019/5/12,9:00:00,14,�k��,1.9,11.6,49,0,0.68,14,�k��,5.8,28,,
2019/5/12,10:00:00,5,���쓌,3,11.4,56.1,0,0.85,5,���쓌,7.2,30,,
2019/5/12,11:00:00,7,��쓌,3.3,11,48.2,0,0.99,8,��,6,24,,
2019/5/12,12:00:00,7,��쓌,3.5,11.5,49.8,0,1.05,7,��쓌,6.6,21,,
2019/5/12,13:00:00,8,��,4.1,11.1,46.8,0,1.03,7,��쓌,6.5,46,,
2019/5/12,14:00:00,8,��,4,11,53.1,0,0.94,7,��쓌,7,45,,
2019/5/12,15:00:00,7,��쓌,2.9,11.1,51.9,0,0.78,7,��쓌,5.8,24,,
2019/5/12,16:00:00,7,��쓌,3.1,10.9,52.4,0,0.46,8,��,5.9,6,,
2019/5/12,17:00:00,8,��,2.1,10.9,50.6,0,0.36,8,��,4.9,3,,
2019/5/12,18:00:00,6,�쓌,1.4,8.5,62,0,0.08,9,��쐼,3.9,4,,
2019/5/12,19:00:00,16,�É�,0,5.6,75.8,0,0.02,6,�쓌,3,1,,
2019/5/12,20:00:00,6.8,�쓌,77.1,0,0,,,,,,,,
2019/5/12,21:00:00,12,��,1,3.5,79.8,0,0,12,��,1.6,29,,
2019/5/12,22:00:00,13,���k��,1,2.8,83.8,0,0,12,��,1.9,59,,
2019/5/12,23:00:00,14,�k��,1.9,2.7,89.3,0,0,14,�k��,2.8,17,,
2019/5/12,0:00:00,13,���k��,2.7,2.5,89.6,0,0,14,�k��,3.5,57,,
2019/5/13,1:00:00,13,���k��,1.7,1.7,89.3,0,0,13,���k��,3.2,3,,
2019/5/13,2:00:00,14,�k��,2,0.9,90.2,0,0,14,�k��,3.3,37,,
2019/5/13,3:00:00,14,�k��,2.1,3.9,93.3,0,0,14,�k��,3.9,43,,
2019/5/13,4:00:00,1.2,�k�k��,88.5,0,0,,,,,,,,
2019/5/13,5:00:00,13,���k��,1.7,1.7,90.6,0,0.05,13,���k��,2.5,55,,
2019/5/13,6:00:00,12,��,0.9,6.3,80.2,0,0.22,13,���k��,2.1,35,,
2019/5/13,7:00:00,14,�k��,0.5,10.2,56,0,0.43,13,���k��,1.8,49,,
2019/5/13,8:00:00,5,���쓌,2.5,12.1,44.6,0,0.64,6,�쓌,8.6,2,,
2019/5/13,9:00:00,6,�쓌,3,11.6,51.3,0,0.81,6,�쓌,4.3,57,,
2019/5/13,10:00:00,7,��쓌,3.1,12.6,47.5,0,0.96,7,��쓌,5,59,,
2019/5/13,11:00:00,7,��쓌,4,13,49.8,0,1.06,7,��쓌,6.6,45,,
2019/5/13,12:00:00,8,��,4.1,12.6,53.9,0,1.08,8,��,7.3,58,,
2019/5/13,13:00:00,8,��,4.4,12,57.3,0,1.04,8,��,8.3,43,,
2019/5/13,14:00:00,8,��,4.9,12.5,61.7,0,0.92,8,��,8.5,47,,
2019/5/13,15:00:00,8,��,4.6,12.6,57.5,0,0.76,8,��,8.4,34,,
2019/5/13,16:00:00,8,��,4,12.4,59.4,0,0.56,8,��,9,1,,
2019/5/13,17:00:00,8,��,3.3,10.7,60.8,0,0.38,8,��,7.5,2,,
2019/5/13,18:00:00,4,��,2.1,9.4,65.5,0,0.17,8,��,4.8,4,,
2019/5/13,19:00:00,2,�k��,2.6,7.3,79.4,0,0.02,2,�k��,3.9,29,,
2019/5/13,20:00:00,2,�k��,3.1,6.9,85,0,0,2,�k��,4.9,52,,
2019/5/13,21:00:00,2,�k��,3.2,6.1,87.5,0,0,1,�k�k��,5.2,12,,
2019/5/13,22:00:00,16,�k,2.8,5.6,89.1,0,0,1,�k�k��,5.3,11,,
2019/5/13,23:00:00,15,�k�k��,1.1,3.3,87.5,0,0,16,�k,2.7,11,,
2019/5/13,0:00:00,14,�k��,1.3,3.2,88.9,0,0,14,�k��,2.5,8,,
2019/5/14,1:00:00,14,�k��,1.8,2.4,90,0,0,13,���k��,2.5,47,,
2019/5/14,2:00:00,11,���쐼,1.7,-0.1,92.1,0,0,12,��,2.9,19,,
2019/5/14,3:00:00,13,���k��,0.4,-0.5,93,0,0,13,���k��,2.3,39,,
2019/5/14,4:00:00,13,���k��,1.6,-0.6,93.7,0,0,13,���k��,2.5,47,,
2019/5/14,5:00:00,13,���k��,1.8,1.1,95.8,0,0.05,13,���k��,3.4,44,,
2019/5/14,6:00:00,12,��,1.2,5.9,96.1,0,0.22,12,��,2.3,38,,
2019/5/14,7:00:00,9,��쐼,1.7,10.1,65.6,0,0.43,11,���쐼,3,26,,
2019/5/14,8:00:00,8,��,1.4,13,53.8,0,0.63,9,��쐼,2.9,46,,
2019/5/14,9:00:00,7,��쓌,3.1,12.9,52.4,0,0.8,7,��쓌,4.4,52,,
2019/5/14,10:00:00,7,��쓌,4,12.4,59,0,0.95,7,��쓌,5.9,58,,
2019/5/14,11:00:00,7,��쓌,3.2,12.8,57.2,0,1.05,7,��쓌,6.6,11,,
2019/5/14,12:00:00,7,��쓌,3.1,12.6,60,0,1.09,7,��쓌,5.6,33,,
2019/5/14,13:00:00,6,�쓌,3.4,12.6,64.3,0,1.04,6,�쓌,5.9,14,,
2019/5/14,14:00:00,6,�쓌,3.1,11.8,66.3,0,0.93,7,��쓌,6.4,11,,
2019/5/14,15:00:00,5,���쓌,2.5,13.6,66.8,0,0.75,6,�쓌,5.6,43,,
2019/5/14,16:00:00,8,��,3.2,12.6,67.1,0,0.56,8,��,6.8,59,,
2019/5/14,17:00:00,8,��,4.2,11.9,69.9,0,0.37,9,��쐼,8.4,56,,
2019/5/14,18:00:00,9,��쐼,4.3,10.5,79.1,0,0.13,10,�쐼,9.1,39,,
2019/5/14,19:00:00,8,��,4.3,9.8,85.6,0,0.01,8,��,8.8,43,,
2019/5/14,20:00:00,9,��쐼,2.6,10.4,87.5,0,0,8,��,6.9,4,,
2019/5/14,21:00:00,10,�쐼,2,9.4,86.4,0,0,9,��쐼,6.3,16,,
2019/5/14,22:00:00,13,���k��,1.7,5.2,83.8,0,0,9,��쐼,4.7,4,,
2019/5/14,23:00:00,13,���k��,1.3,5.7,92.4,0,0,14,�k��,3.6,6,,
2019/5/14,0:00:00,15,�k�k��,0.5,4.7,94,0,0,14,�k��,1.7,54,,
2019/5/15,1:00:00,13,���k��,1.4,2,93.5,0,0,12,��,1.9,34,,
2019/5/15,2:00:00,15,�k�k��,0.6,2.7,94.3,0,0,11,���쐼,4.5,30,,
2019/5/15,3:00:00,16,�k,0.3,2.3,94.6,0,0,15,�k�k��,2.4,25,,
2019/5/15,4:00:00,1,�k�k��,0.3,2.6,94.8,0,0,4,��,4.4,45,,
2019/5/15,5:00:00,16,�É�,0.2,5.4,95.6,0,0.02,13,���k��,2.3,29,,
2019/5/15,6:00:00,6.9,�쓌,96.3,0,0.05,,,,,,,,
2019/5/15,7:00:00,2,�k��,1.1,8.5,96.9,0,0.11,14,�k��,2.4,32,,
2019/5/15,8:00:00,3,���k��,2.1,9.2,90.6,0,0.18,2,�k��,3.7,33,,
2019/5/15,9:00:00,1,�k�k��,2.1,10,87.1,0,0.27,2,�k��,3.5,55,,
2019/5/15,10:00:00,4,��,2.7,11.2,83.3,0,0.37,4,��,4.3,59,,
2019/5/15,11:00:00,4,��,2.2,12,75.6,0,0.61,4,��,4.5,6,,
2019/5/15,12:00:00,6,�쓌,3.1,11.2,74,0,0.71,6,�쓌,5.2,40,,
2019/5/15,13:00:00,5,���쓌,2.4,10,78.6,0,0.57,6,�쓌,4.7,27,,
2019/5/15,14:00:00,5,���쓌,1.3,10.7,77.2,0,0.5,5,���쓌,3.6,32,,
2019/5/15,15:00:00,6,�쓌,1.7,10.4,77.5,0,0.4,5,���쓌,3.1,26,,
2019/5/15,16:00:00,5,���쓌,2.3,9.6,82.9,0,0.32,6,�쓌,3.5,48,,
2019/5/15,17:00:00,5,���쓌,1.8,8.8,87.6,0,0.16,5,���쓌,3.4,5,,
2019/5/15,18:00:00,3,���k��,1.9,8.2,90.2,0,0.06,4,��,3.5,40,,
2019/5/15,19:00:00,3,���k��,1.3,7.8,92.3,0,0.01,4,��,3.1,6,,
2019/5/15,20:00:00,3,���k��,1,7.5,93.9,0,0,4,��,3,11,,
2019/5/15,21:00:00,2,�k��,0.5,7.4,94.8,0,0,3,���k��,1.7,5,,
2019/5/15,22:00:00,3,���k��,1,7.2,95.4,0,0,3,���k��,1.7,50,,
2019/5/15,23:00:00,3,���k��,1.5,6.8,95.6,0,0,4,��,2.5,51,,
2019/5/15,0:00:00,16,�k,1,7.1,96,0,0,1,�k�k��,2.5,38,,
2019/5/16,1:00:00,14,�k��,1.2,6.2,96,0,0,14,�k��,2.2,27,,
2019/5/16,2:00:00,15,�k�k��,0.4,5.9,96.1,0,0,14,�k��,4.1,58,,
2019/5/16,3:00:00,4,��,0.9,6.2,96.2,0,0,4,��,1.5,47,,
2019/5/16,4:00:00,16,�k,0.9,6.7,96.4,0,0,1,�k�k��,2.1,37,,
2019/5/16,5:00:00,12,��,0.5,5.7,96.2,0,0.04,12,��,2.5,52,,
2019/5/16,6:00:00,2,�k��,1.1,7.3,96.5,0,0.12,10,�쐼,2.5,18,,
2019/5/16,7:00:00,9.1,��쐼,93.9,0,0.23,,,,,,,,
2019/5/16,8:00:00,4,��,2.3,9.9,84.1,0,0.44,5,���쓌,3.7,36,,
2019/5/16,9:00:00,6,�쓌,2.5,10.1,71,0,0.78,7,��쓌,3.8,52,,
2019/5/16,10:00:00,7,��쓌,3,12.1,66.6,0,0.91,8,��,4.4,46,,
2019/5/16,11:00:00,8,��,3.2,12.4,76.8,0,0.97,6,�쓌,5.6,17,,
2019/5/16,12:00:00,6,�쓌,2.7,12.5,69.8,0,1,7,��쓌,5.6,12,,
2019/5/16,13:00:00,6,�쓌,3.6,11.8,71,0,0.99,6,�쓌,6,57,,
2019/5/16,14:00:00,7,��쓌,2.5,11.3,72.6,0,0.81,6,�쓌,5.9,12,,
2019/5/16,15:00:00,5,���쓌,2.5,10.4,78.5,0,0.41,5,���쓌,4.1,42,,
2019/5/16,16:00:00,5,���쓌,2.4,10.4,83.2,0,0.28,5,���쓌,4.1,2,,
2019/5/16,17:00:00,3,���k��,1.8,9.8,90.7,0,0.13,4,��,3.2,30,,
2019/5/16,18:00:00,4,��,1.7,9.3,92.8,0,0.05,5,���쓌,2.9,26,,
2019/5/16,19:00:00,5,���쓌,1.7,9.3,94.5,0,0.01,4,��,2.5,57,,
2019/5/16,20:00:00,4,��,2.5,9.4,95.7,0,0,4,��,3.5,53,,
2019/5/16,21:00:00,5,���쓌,0.8,9.3,96.4,0,0,4,��,3.9,7,,
2019/5/16,22:00:00,15,�k�k��,0.8,9.5,96.7,0,0,16,�k,1.6,59,,
2019/5/16,23:00:00,16,�k,0.8,9.7,97,0,0,16,�k,1.5,36,,
2019/5/16,0:00:00,16,�k,0.6,9.8,97.1,0,0,16,�k,1.7,49,,
2019/5/17,1:00:00,10,�쐼,97.2,0,0,,,,,,,,
2019/5/17,2:00:00,4,��,0.6,10.1,97.4,0,0,1,�k�k��,1.4,21,,
2019/5/17,3:00:00,3,���k��,1.1,9.7,96.9,0,0,3,���k��,2.9,39,,
2019/5/17,4:00:00,16,�É�,0.1,9.8,96.8,0,0,2,�k��,2,9,,
2019/5/17,5:00:00,16,�É�,0.1,10.2,97.1,0,0.01,1,�k�k��,8,37,,
2019/5/17,6:00:00,5,���쓌,1.6,9.7,96.6,0,0.04,5,���쓌,2,57,,
2019/5/17,7:00:00,1,�k�k��,0.9,10.2,96.3,0,0.1,5,���쓌,1.9,23,,
2019/5/17,8:00:00,2,�k��,0.5,11.3,95.7,0,0.18,4,��,1.9,58,,
2019/5/17,9:00:00,5,���쓌,1.2,11.2,88.7,0,0.22,5,���쓌,2.7,29,,